Simultaneous Nadir Overpasses (SNOs) Predictions

Prediction of SNOs between LANDSAT-8 and METOP-B Satellite Orbit:

Table of predicted SNOs for the next 14.0 days since TLE Epoch: 8/4/2017
Index Date (LANDSAT-8) Time (LANDSAT-8) Lat,Lon (LANDSAT-8) SZA (LANDSAT-8 ) Date (METOP-B) Time (METOP-B) Lat,Lon (METOP-B) SZA (METOP-B ) Distance(km) Time Diff (sec)
1 08/05/2017 23:54:01 -81.19, 42.60 113.43 08/05/2017 23:53:44 -81.20, 42.71 113.42 2.09 17
2 08/06/2017 00:43:26 81.22,-149.29 66.66 08/06/2017 00:44:23 81.22,-149.33 66.67 0.72 57
3 08/08/2017 19:28:17 -81.20, 109.15 112.61 08/08/2017 19:28:04 -81.20, 109.22 112.61 1.25 13
4 08/08/2017 20:17:42 81.22, -82.76 67.47 08/08/2017 20:18:43 81.22, -82.86 67.48 1.81 61
5 08/11/2017 15:02:33 -81.20, 175.68 111.77 08/11/2017 15:02:24 -81.20, 175.72 111.77 0.76 9
6 08/11/2017 15:51:59 81.21, -16.64 68.25 08/11/2017 15:53:04 81.21, -16.79 68.27 2.55 65
7 08/14/2017 10:36:48 -81.21,-117.83 110.90 08/14/2017 10:36:43 -81.21,-117.80 110.90 0.61 5
8 08/14/2017 11:26:14 81.21, 49.82 69.12 08/14/2017 11:27:23 81.21, 49.65 69.13 3.01 69
9 08/17/2017 05:21:58 80.67, 133.56 68.85 08/17/2017 05:20:44 80.86, 133.08 68.94 23.67 74
10 08/17/2017 06:11:04 -81.21, -51.37 110.00 08/17/2017 06:11:03 -81.21, -51.33 109.99 0.68 1




NCC Satellite Simultaneous Nadir Overpasses (SNOs) Prediction Service
